Location: McFarlands Corners
(41.4117°N, 81.3382°W)
Time: 05:34:06
(UTC+00:00)

ARIANE 6 FM1 Upper Stage - Visible Passes

Search period start: 18 January 2026 00:00
Search period end: 28 January 2026 00:00
Orbit: 522 x 610 km, 62.0° (Epoch: 17 January)

Date Brightness Start Highest point End Pass type
(mag) Time Alt. Az. Time Alt. Az. Time Alt. Az.
18 Jan 5.4 10:05:14 11° SSE 10:05:14 11° SSE 10:05:25 10° SSE visible
18 Jan 5.0 23:58:53 10° SE 23:58:53 10° SE 23:58:53 10° SE visible
19 Jan 4.3 23:57:55 10° SSE 00:00:01 19° SE 00:00:01 19° SE visible
20 Jan 5.7 01:35:54 10° WSW 01:36:05 11° WSW 01:36:05 11° WSW visible
20 Jan 3.5 23:57:26 10° S 00:01:03 30° ESE 00:01:03 30° ESE visible
21 Jan 5.6 01:36:29 10° WSW 01:37:07 13° W 01:37:07 13° W visible
21 Jan 2.9 23:57:13 10° SSW 00:01:08 46° ESE 00:02:00 39° E visible
22 Jan 5.6 01:37:13 10° W 01:38:04 14° W 01:38:04 14° W visible
22 Jan 2.5 23:57:12 10° SSW 00:01:16 72° SE 00:02:52 35° NE visible
23 Jan 5.7 01:38:11 10° WNW 01:38:56 13° WNW 01:38:56 13° WNW visible
23 Jan 2.7 23:57:20 10° SW 00:01:27 75° NW 00:03:38 26° NNE visible
24 Jan 5.8 01:39:28 10° WNW 01:39:42 10° NW 01:39:42 10° NW visible
24 Jan 3.3 23:57:39 10° SW 00:01:39 50° NW 00:04:20 19° NNE visible
25 Jan 4.0 23:58:08 10° WSW 00:01:52 34° NW 00:04:56 14° NNE visible
26 Jan 4.5 23:58:46 10° W 00:02:09 25° NW 00:05:28 10° NNE visible
